EW6228 Weather Reports


time (UTC)temp
F
wind
direction
speed
knots
gust
knots
rain 1hr
in
rain 24hr
in
rain mn
in
humidity
%
barometer
mb
20260506114351 76 118 0.9 4.3 0.00 0.00 0.00 100 1007.9
20260506113851 76 134 0.9 4.3 0.00 0.00 0.00 100 1007.8
20260506113350 76 135 1.7 4.3 0.00 0.00 0.00 100 1007.9
20260506112849 76 129 2.6 4.3 0.00 0.00 0.00 100 1007.8
20260506112350 76 140 2.6 6.1 0.00 0.00 0.00 100 1007.9
20260506112121 76 140 4.3 7.0 0.00 0.00 0.00 100 1007.9
20260506111348 76 146 3.5 7.0 0.00 0.00 0.00 100 1007.8
20260506110850 76 142 2.6 7.0 0.00 0.00 0.00 100 1007.8
20260506110344 76 132 2.6 5.2 0.00 0.00 0.00 100 1007.9
20260506105832 76 142 3.5 5.2 0.00 0.00 0.00 100 1007.8
20260506105322 76 148 3.5 7.0 0.00 0.00 0.00 100 1007.8
20260506104811 76 134 2.6 7.0 0.00 0.00 0.00 100 1007.9
20260506104308 76 144 1.7 4.3 0.00 0.00 0.00 100 1007.9
20260506103802 76 142 1.7 4.3 0.00 0.00 0.00 100 1007.9
20260506103523 76 146 1.7 4.3 0.00 0.00 0.00 100 1007.8
20260506102747 76 136 0.9 3.5 0.00 0.00 0.00 100 1007.7
20260506102240 76 130 0.0 2.6 0.00 0.00 0.00 100 1007.6
20260506101736 76 140 0.0 1.7 0.00 0.00 0.00 100 1007.7
20260506101228 76 132 0.0 1.7 0.00 0.00 0.00 100 1007.7
20260506100722 76 143 0.0 0.0 0.00 0.00 0.00 100 1007.6
20260506100219 76 143 0.0 0.9 0.00 0.00 0.00 100 1007.7
20260506095950 76 144 0.0 0.9 0.00 0.00 0.00 100 1007.6
20260506095219 76 121 0.0 0.0 0.00 0.00 0.00 100 1007.5
20260506094720 76 125 0.0 0.0 0.00 0.00 0.00 100 1007.4
20260506094448 76 118 0.0 0.0 0.00 0.00 0.00 100 1007.5
20260506093717 76 115 0.0 0.0 0.00 0.00 0.00 100 1007.6
20260506093218 76 115 0.0 0.0 0.00 0.00 0.00 100 1007.6
20260506092715 76 124 0.0 0.0 0.00 0.00 0.00 100 1007.6
20260506091711 76 123 0.0 0.9 0.00 0.00 0.00 100 1007.5
20260506091208 76 122 0.0 0.0 0.00 0.00 0.00 100 1007.5
20260506090709 76 122 0.0 3.5 0.00 0.00 0.00 100 1007.5
20260506090209 76 128 0.0 3.5 0.00 0.00 0.00 100 1007.4
20260506085707 76 145 0.9 3.5 0.00 0.00 0.00 100 1007.5
20260506085204 76 144 0.9 5.2 0.00 0.00 0.00 100 1007.5
20260506084704 76 134 1.7 5.2 0.00 0.00 0.00 100 1007.5
20260506084201 76 156 2.6 5.2 0.00 0.00 0.00 100 1007.5
20260506083701 77 127 2.6 5.2 0.00 0.00 0.00 100 1007.5
20260506083200 77 119 1.7 4.3 0.00 0.00 0.00 100 1007.5
20260506082651 77 124 1.7 3.5 0.00 0.00 0.00 100 1007.5
20260506082144 77 129 1.7 3.5 0.00 0.00 0.00 100 1007.6
20260506081631 77 139 1.7 4.3 0.00 0.00 0.00 100 1007.6
20260506081125 77 128 3.5 5.2 0.00 0.00 0.00 100 1007.5
20260506080854 77 142 3.5 5.2 0.00 0.00 0.00 100 1007.5
20260506080117 77 137 3.5 5.2 0.00 0.00 0.00 100 1007.6
20260506073042 77 129 2.6 4.3 0.00 0.00 0.00 100 1008.0
20260506072530 77 130 2.6 6.1 0.00 0.00 0.00 100 1008.2
20260506072025 77 134 3.5 7.0 0.00 0.00 0.00 100 1008.2
20260506071523 77 148 3.5 7.0 0.00 0.00 0.00 100 1008.2
20260506071017 77 149 2.6 5.2 0.00 0.00 0.00 100 1008.3
20260506070511 77 149 1.7 4.3 0.00 0.00 0.00 100 1008.4
20260506061917 78 168 0.9 4.3 0.00 0.00 0.00 100 1008.8
20260506061411 78 165 2.6 5.2 0.00 0.00 0.00 100 1008.8
20260506060905 78 144 2.6 6.1 0.00 0.00 0.00 100 1008.8
20260506060355 78 182 1.7 9.6 0.00 0.00 0.00 100 1008.8
20260506051254 78 153 6.1 10.4 0.00 0.00 0.00 100 1008.3
20260506050747 78 148 6.1 10.4 0.00 0.00 0.00 100 1008.3
20260506050247 78 143 6.1 9.6 0.00 0.00 0.00 100 1008.4
20260506044728 78 144 7.0 12.2 0.00 0.00 0.00 100 1008.3
20260506044229 78 140 7.8 13.9 0.00 0.00 0.00 100 1008.2
20260506043728 78 165 7.8 13.9 0.00 0.00 0.00 100 1008.2
20260506043500 78 140 7.8 15.6 0.00 0.00 0.00 100 1008.2
20260506042728 78 162 8.7 15.6 0.00 0.00 0.00 100 1008.2
20260506042229 78 146 8.7 13.9 0.00 0.00 0.00 100 1008.2
20260506041728 78 143 8.7 13.9 0.00 0.00 0.00 100 1008.1
20260506041228 78 143 7.8 13.0 0.00 0.00 0.00 100 1008.1
20260506040728 78 147 8.7 13.0 0.00 0.00 0.00 100 1008.1
20260506040228 78 139 7.8 13.0 0.00 0.00 0.00 100 1008.1
20260506035729 78 136 7.0 10.4 0.00 0.00 0.00 100 1008.2
20260506035228 78 150 7.0 11.3 0.00 0.00 0.00 100 1008.1
20260506034728 78 141 7.0 11.3 0.00 0.00 0.00 100 1008.1
20260506034228 78 145 7.8 13.0 0.00 0.00 0.00 100 1008.1
20260506033728 78 137 7.8 13.0 0.00 0.00 0.00 100 1008.1
20260506033228 78 151 7.0 13.9 0.00 0.00 0.00 100 1008.1
20260506032729 78 138 7.0 13.9 0.00 0.00 0.00 100 1008.1
20260506032227 78 138 7.8 13.9 0.00 0.00 0.00 100 1008.0
20260506031954 78 158 7.0 13.9 0.00 0.00 0.00 100 1008.1
20260506031210 78 140 7.8 13.0 0.00 0.00 0.00 100 1008.0
20260506030709 78 154 8.7 13.0 0.00 0.00 0.00 100 1008.0
20260506030203 78 147 7.8 13.0 0.00 0.00 0.00 100 1007.9
20260506025658 77 142 7.0 13.0 0.00 0.00 0.00 100 1007.8
20260506025152 77 133 6.1 10.4 0.00 0.00 0.00 100 1007.7
20260506024653 77 153 6.1 12.2 0.00 0.00 0.00 100 1007.6
20260506024422 77 134 7.0 12.2 0.00 0.00 0.00 100 1007.5
20260506023651 77 145 7.8 11.3 0.00 0.00 0.00 100 1007.5
20260506023148 77 137 7.0 13.0 0.00 0.00 0.00 100 1007.4
20260506022649 77 144 7.0 13.0 0.00 0.00 0.00 100 1007.3
20260506022147 77 132 7.8 13.0 0.00 0.00 0.00 100 1007.2
20260506021651 77 134 7.8 13.0 0.00 0.00 0.00 100 1007.1
20260506021146 77 130 7.8 12.2 0.00 0.00 0.00 100 1007.1
20260506020648 77 125 7.0 11.3 0.00 0.00 0.00 100 1007.1
20260506020143 77 144 7.0 11.3 0.00 0.00 0.00 100 1007.0
20260506015646 78 155 7.8 11.3 0.00 0.00 0.00 100 1007.0
20260506015144 78 146 7.8 13.9 0.00 0.00 0.00 100 1006.9
20260506014645 78 156 7.8 13.9 0.00 0.00 0.00 100 1006.9
20260506014140 78 139 8.7 14.8 0.00 0.00 0.00 100 1006.8
20260506013639 78 142 8.7 14.8 0.00 0.00 0.00 100 1006.8
20260506013140 78 130 8.7 13.9 0.00 0.00 0.00 100 1006.6
20260506012640 78 133 8.7 13.9 0.00 0.00 0.00 100 1006.5
20260506012141 78 138 8.7 13.0 0.00 0.00 0.00 100 1006.5
20260506011640 78 153 7.8 13.0 0.00 0.00 0.00 100 1006.5
20260506011140 78 138 7.8 13.0 0.00 0.00 0.00 100 1006.4
20260506010640 78 142 7.8 13.0 0.00 0.00 0.00 100 1006.4
20260506010141 78 145 7.8 13.0 0.00 0.00 0.00 100 1006.3
20260506005907 78 137 8.7 13.9 0.00 0.00 0.00 100 1006.2
20260506005124 78 138 7.8 13.9 0.00 0.00 0.00 100 1006.2
20260506004855 78 124 7.8 13.0 0.00 0.00 0.00 100 1006.2
20260506004125 79 158 7.8 13.0 0.00 0.00 0.00 100 1006.1
20260506003624 79 130 9.6 13.9 0.00 0.00 0.00 100 1006.0
20260506003124 79 150 9.6 13.9 0.00 0.00 0.00 100 1006.1
20260506002624 79 134 9.6 15.6 0.00 0.00 0.00 100 1006.1
20260506002401 79 138 9.6 15.6 0.00 0.00 0.00 100 1006.1
20260506001624 79 157 9.6 15.6 0.00 0.00 0.00 100 1006.1
20260506001125 79 157 10.4 16.5 0.00 0.00 0.00 100 1006.1
20260506000619 79 142 10.4 16.5 0.00 0.00 0.00 100 1006.1
20260506000107 79 154 9.6 18.2 0.00 0.00 0.00 100 1006.1
20260505235826 79 142 10.4 18.2 0.00 0.00 0.00 100 1006.0
20260505235043 79 144 11.3 16.5 0.00 0.00 0.00 100 1006.0
20260505234531 80 147 10.4 17.4 0.00 0.00 0.00 100 1006.1
20260505234251 80 136 10.4 17.4 0.00 0.00 0.00 100 1006.1
20260505233511 80 169 9.6 17.4 0.00 0.00 0.00 100 1006.2
20260505233000 80 136 10.4 17.4 0.00 0.00 0.00 100 1006.2
20260505232725 80 135 10.4 16.5 0.00 0.00 0.00 100 1006.3
20260505231944 80 149 10.4 17.4 0.00 0.00 0.00 100 1006.2
20260505231437 80 157 11.3 17.4 0.00 0.00 0.00 100 1006.1
20260505230929 80 126 10.4 17.4 0.00 0.00 0.00 100 1006.1
20260505230421 80 152 8.7 17.4 0.00 0.00 0.00 100 1006.2
20260505225913 80 125 7.8 14.8 0.00 0.00 0.00 100 1006.2
20260505225359 80 153 9.6 16.5 0.00 0.00 0.00 100 1006.3
20260505224859 80 154 9.6 18.2 0.00 0.00 0.00 100 1006.4
20260505224353 80 151 9.6 18.2 0.00 0.00 0.00 100 1006.3
20260505223846 80 143 9.6 18.2 0.00 0.00 0.00 100 1006.3
20260505223336 80 147 10.4 18.2 0.00 0.00 0.00 100 1006.4
20260505222831 80 145 9.6 17.4 0.00 0.00 0.00 100 1006.4
20260505222329 80 155 8.7 14.8 0.00 0.00 0.00 100 1006.4
20260505221824 80 166 9.6 15.6 0.00 0.00 0.00 100 1006.4
20260505221316 80 157 9.6 15.6 0.00 0.00 0.00 100 1006.4
20260505220811 80 159 10.4 18.2 0.00 0.00 0.00 100 1006.5
20260505220305 80 121 11.3 18.2 0.00 0.00 0.00 100 1006.5
20260505215754 80 149 10.4 17.4 0.00 0.00 0.00 100 1006.6
20260505215248 80 136 9.6 14.8 0.00 0.00 0.00 100 1006.7
20260505214742 80 140 9.6 16.5 0.00 0.00 0.00 100 1006.8
20260505214241 80 182 10.4 16.5 0.00 0.00 0.00 100 1006.9
20260505213734 80 131 10.4 16.5 0.00 0.00 0.00 100 1007.0
20260505213229 80 150 10.4 16.5 0.00 0.00 0.00 100 1007.1
20260505212953 80 145 9.6 16.5 0.00 0.00 0.00 100 1007.1
20260505212211 80 123 10.4 16.5 0.00 0.00 0.00 100 1007.1
20260505211711 80 113 11.3 16.5 0.00 0.00 0.00 100 1007.2
20260505211432 80 165 10.4 16.5 0.00 0.00 0.00 100 1007.2
20260505210148 81 149 11.3 16.5 0.00 0.00 0.00 100 1007.2
20260505205647 81 139 10.4 16.5 0.00 0.00 0.00 100 1007.3
20260505205141 81 136 10.4 16.5 0.00 0.00 0.00 100 1007.3
20260505204636 81 138 11.3 17.4 0.00 0.00 0.00 100 1007.4
20260505204127 81 142 9.6 17.4 0.00 0.00 0.00 100 1007.5
20260505203619 81 138 9.6 15.6 0.00 0.00 0.00 100 1007.6
20260505203112 81 155 8.7 15.6 0.00 0.00 0.00 100 1007.6
20260505202607 82 136 9.6 16.5 0.00 0.00 0.00 100 1007.6
20260505202100 81 128 8.7 16.5 0.00 0.00 0.00 100 1007.6
20260505201549 82 140 7.8 14.8 0.00 0.00 0.00 100 1007.7
20260505201048 82 138 7.8 14.8 0.00 0.00 0.00 100 1007.8
20260505200542 81 141 7.8 13.9 0.00 0.00 0.00 100 1007.9
20260505200032 81 136 8.7 13.9 0.00 0.00 0.00 100 1007.9
20260505195526 81 145 7.0 13.0 0.00 0.00 0.00 100 1008.0
20260505195255 81 151 7.0 18.2 0.00 0.00 0.00 100 1008.1
20260505194512 81 154 7.8 18.2 0.00 0.00 0.00 100 1008.2
20260505194238 81 171 8.7 18.2 0.00 0.00 0.00 100 1008.1
20260505193503 81 161 8.7 18.2 0.00 0.00 0.00 100 1008.2
20260505193233 81 153 7.8 16.5 0.00 0.00 0.00 100 1008.2
20260505192454 81 170 7.8 16.5 0.00 0.00 0.00 100 1008.2
20260505191944 81 143 7.0 13.0 0.00 0.00 0.00 100 1008.3
20260505191438 81 161 7.8 15.6 0.00 0.00 0.00 100 1008.2
20260505190932 81 167 9.6 16.5 0.00 0.00 0.00 100 1008.2
20260505190427 81 157 7.8 16.5 0.00 0.00 0.00 100 1008.4
20260505185920 81 178 7.0 15.6 0.00 0.00 0.00 100 1008.4
20260505185415 81 153 7.8 15.6 0.00 0.00 0.00 100 1008.4
20260505185136 81 176 8.7 13.0 0.00 0.00 0.00 100 1008.4
20260505184358 81 172 8.7 13.9 0.00 0.00 0.00 100 1008.5
20260505184127 81 149 7.8 14.8 0.00 0.00 0.00 100 1008.5
20260505183622 81 152 8.7 14.8 0.00 0.00 0.00 100 1008.5
20260505182844 81 146 7.8 13.9 0.00 0.00 0.00 100 1008.6
20260505182339 81 149 7.8 13.0 0.00 0.00 0.00 100 1008.6
20260505181833 81 178 8.7 14.8 0.00 0.00 0.00 100 1008.6
20260505181320 81 154 7.8 15.6 0.00 0.00 0.00 100 1008.5
20260505180815 81 164 7.8 15.6 0.00 0.00 0.00 100 1008.5
20260505180314 81 178 9.6 15.6 0.00 0.00 0.00 100 1008.6
20260505175808 81 183 7.8 15.6 0.00 0.00 0.00 100 1008.6
20260505175257 81 165 7.8 14.8 0.00 0.00 0.00 100 1008.7
20260505174757 81 180 7.8 14.8 0.00 0.00 0.00 100 1008.7
20260505174251 81 161 8.7 15.6 0.00 0.00 0.00 100 1008.8
20260505173745 81 158 8.7 15.6 0.00 0.00 0.00 100 1008.8
20260505173234 81 160 7.8 14.8 0.00 0.00 0.00 100 1008.7
20260505172732 81 138 7.0 14.8 0.00 0.00 0.00 100 1008.8
20260505172226 81 159 7.0 13.9 0.00 0.00 0.00 100 1008.9
20260505171720 81 145 7.0 13.9 0.00 0.00 0.00 100 1008.9
20260505171215 80 167 7.8 14.8 0.00 0.00 0.00 100 1009.0
20260505170708 81 171 7.8 14.8 0.00 0.00 0.00 100 1009.0
20260505170202 80 176 7.0 13.9 0.00 0.00 0.00 100 1009.0
20260505165925 80 182 6.1 11.3 0.00 0.00 0.00 100 1009.1
20260505165150 80 165 7.0 12.2 0.00 0.00 0.00 100 1009.1
20260505164644 80 184 7.0 14.8 0.00 0.00 0.00 100 1009.1
20260505164139 80 151 7.0 14.8 0.00 0.00 0.00 100 1009.1
20260505163628 80 159 7.8 14.8 0.00 0.00 0.00 100 1009.0
20260505163126 80 159 7.8 14.8 0.00 0.00 0.00 100 1009.1
20260505162620 80 184 7.8 5.2 0.00 0.00 0.00 100 1009.1
20260505161347 79 161 6.1 13.0 0.00 0.00 0.00 100 1009.0
20260505160848 79 167 7.0 15.6 0.00 0.00 0.00 100 1009.0
20260505160348 79 165 7.8 15.6 0.00 0.00 0.00 100 1008.9
20260505153344 79 172 7.8 16.5 0.00 0.00 0.00 100 1008.9
20260505152844 79 178 7.8 16.5 0.00 0.00 0.00 100 1008.8
20260505152343 79 151 7.8 14.8 0.00 0.00 0.00 100 1008.8
20260505151848 79 170 7.8 14.8 0.00 0.00 0.00 100 1008.8
20260505151628 78 177 7.8 13.0 0.00 0.00 0.00 100 1008.8
20260505150847 78 176 7.8 13.0 0.00 0.00 0.00 100 1008.8
20260505150341 78 156 7.0 13.0 0.00 0.00 0.00 100 1008.8
20260505150119 78 160 7.0 13.9 0.00 0.00 0.00 100 1008.8
20260505140234 76 181 5.2 9.6 0.00 0.00 0.00 100 1008.7
20260505130208 75 167 4.3 8.7 0.00 0.00 0.00 100 1008.5
20260505124939 75 173 3.5 9.6 0.00 0.00 0.00 100 1008.3
20260505124440 75 182 3.5 7.0 0.00 0.00 0.00 100 1008.3
20260505123937 74 169 2.6 7.0 0.00 0.00 0.00 100 1008.2
20260505123207 74 168 2.6 7.0 0.00 0.00 0.00 100 1008.2
20260505122708 74 163 2.6 7.0 0.00 0.00 0.00 100 1008.1
20260505122203 74 143 1.7 4.3 0.00 0.00 0.00 100 1008.1
20260505121655 74 159 1.7 4.3 0.00 0.00 0.00 100 1008.0
20260505121154 74 155 0.9 3.5 0.00 0.00 0.00 100 1008.0
20260505120654 74 161 0.0 3.5 0.00 0.00 0.00 100 1008.1
20260505120154 74 153 0.0 3.5 0.00 0.00 0.00 100 1008.1
20260505115654 74 161 0.0 3.5 0.00 0.00 0.00 100 1008.1
20260505115156 73 164 0.9 3.5 0.00 0.00 0.00 100 1008.1
20260505114653 73 162 0.9 2.6 0.00 0.00 0.00 100 1008.0